7 * 24
多渠道服务支持
STARLINK-11133是美国SpaceX星链星座的一员,于2024年6月5日发射入轨。星链项目旨在构建全球卫星互联网星座,为全球提供低延迟、高速率的互联网接入服务。该卫星继承了星链星座的技术设计,承担着通信网络节点任务,进一步扩充了星链低轨卫星网络的覆盖范围与服务容量,助力全球互联网覆盖布局完善。
美国
(US)
| 数据来源 | 国际轨道数据 |
| 星历时间: | 2026-05-24T07:36:14+0800 1天前 查看轨道信息 |
| 半长轴: | 6737.87km |
| 偏心率: | 0.0001256 |
| 轨道倾角: | 53.158° |
| 近地点辐角 | 77.841° |
| 升交点赤经 | 239.948° |
| 平近点角 | 282.275° |
| 近地点: | 358.886km |
| 远地点: | 360.58km |
| 周期: | 91.737分钟 |
| 每日圈数: | 15.69708 |